Regional Weather Roundup
Issued by NWS

Home | Current Version | Previous Version | Graphics & Text | Print | Product List | Glossary Off
Versions: 1 2 3 4 5 6 7 8 9 10 11 12 13 14 15 16 17 18 19 20 21 22 23 24 25 26 27 28 29 30 31 32 33 34 35 36 37 38 39 40 41 42 43 44 45 46 47 48 49 50

000
ASUS43 KDMX 270308
RWRIA

WEATHER ROUNDUP FOR IOWA
NATIONAL WEATHER SERVICE DES MOINES IA
1000 PM CDT TUE JUL 26 2016

NOTE: "FAIR" INDICATES FEW OR NO CLOUDS BELOW 12,000 FEET WITH NO
SIGNIFICANT WEATHER AND/OR OBSTRUCTIONS TO VISIBILITY.

* - THESE STATIONS ARE NOT NWS STATIONS...THUS NOT UNDER NWS
QUALITY CONTROL.  THEY ALSO DO NOT REPORT WEATHER SUCH
AS PRECIPITATION OR FOG.

IAZ001>003-012>014-020>022-031>034-043>046-270400-
   NORTHWEST IOWA

CITY           SKY/WX    TMP DP  RH WIND       PRES   REMARKS
CARROLL *      PTCLDY    70  68  94 S6        30.03R
CHEROKEE *     CLEAR     71  67  88 S5        30.02R
DENISON *      MOCLDY    72  68  88 CALM      30.02R
LE MARS *      CLEAR     75  68  78 SE7       30.01R
SHELDON *      CLEAR     73  68  83 S8        30.00R
SIOUX CITY     CLEAR     73  67  81 S6        30.01R
SPENCER        CLEAR     72  68  87 S6        30.02R
STORM LAKE *   CLEAR     72  68  88 S9        30.04R
$$

IAZ055>058-069>071-079>083-090>094-270400-
   SOUTHWEST IOWA

CITY           SKY/WX    TMP DP  RH WIND       PRES   REMARKS
ATLANTIC *     CLEAR     75  66  73 E5        30.03R
CLARINDA *       N/A     70  68  94 MISG      30.03R
COUNCIL BLFS *   N/A     73  70  88 SE3       30.02S
CRESTON *      PTCLDY    70  66  88 E3        30.05R
HARLAN  *      CLEAR     72  68  88 CALM      30.06R
LAMONI         PTCLDY    73  67  81 E3        30.02S
RED OAK *      PTCLDY    73  68  83 CALM      30.02R
SHENANDOAH *   PTCLDY    72  70  94 CALM      30.02R
$$

IAZ047>049-059>061-072>074-084-270400-
   CENTRAL IOWA

CITY           SKY/WX    TMP DP  RH WIND       PRES   REMARKS
AMES           CLEAR     68  67  96 SW5       30.03R
ANKENY *         N/A    N/A N/A N/A MISG        N/A
BOONE *          N/A     72  66  83 S3        30.03R
CHARITON *       N/A    N/A N/A N/A MISG        N/A
DES MOINES     PTCLDY    77  65  66 S3        30.02R
GRINNELL*      CLEAR     72  65  79 E5        30.02F
KNOXVILLE *    CLEAR     75  66  73 SE6       30.00F
MARSHALLTOWN   CLEAR     71  66  84 SE6       30.01S
NEWTON *       CLEAR     70  66  88 SE8       30.01S
PELLA *        CLEAR     73  66  79 CALM      30.02F
PERRY *          N/A     70  68  95 S5        30.03R
$$

IAZ004>006-015-016-023>025-035-036-270400-
   NORTH CENTRAL IOWA

CITY           SKY/WX    TMP DP  RH WIND       PRES   REMARKS
ALGONA *       CLEAR     73  70  88 S7        30.03R
ESTHERVILLE    CLOUDY    72  69  90 S6        30.01R
FORT DODGE *   CLEAR     75  66  73 CALM      30.03S
MASON CITY     CLEAR     71  68  90 S7        30.03S
FOREST CITY *    N/A     70  70 100 S5        30.03R
IOWA FALLS *     N/A     72  67  84 SW6       30.05R
$$

IAZ007>011-017>019-026>030-037>042-050>054-066-270400-
   NORTHEAST IOWA

CITY           SKY/WX    TMP DP  RH WIND       PRES   REMARKS
CEDAR RAPIDS   CLEAR     70  69  97 CALM      30.02S
CHARLES CITY * CLEAR     72  72 100 S3        30.03R
CLINTON *      CLEAR     73  69  87 CALM      30.02S
DECORAH *      CLOUDY    73  70  88 S5        30.02R
DUBUQUE        CLEAR     71  68  90 CALM      30.04S
MONTICELLO *   CLEAR     70  68  94 CALM      30.03R
OELWEIN *      CLEAR     73  68  83 S5        30.03S
WATERLOO       CLEAR     71  66  84 SE5       30.00S
$$

IAZ064-065-067-068-078-270400-
   EAST CENTRAL IOWA

CITY           SKY/WX    TMP DP  RH WIND       PRES   REMARKS
DAVENPORT      CLEAR     70  67  90 CALM      30.02S
IOWA CITY      CLEAR     74  67  78 CALM      30.03S
MT. PLEASANT * CLEAR     75  70  86 CALM      30.01S
MUSCATINE *    PTCLDY    73  70  88 CALM      30.01S
QUAD CITIES    CLEAR     72  67  84 CALM      30.01R
$$

IAZ062-063-075>077-085>089-095>099-270400-
   SOUTHEAST IOWA

CITY           SKY/WX    TMP DP  RH WIND       PRES   REMARKS
BURLINGTON     CLEAR     72  68  87 CALM      30.01R
FAIRFIELD *    CLEAR     72  66  83 CALM      30.02R
KEOKUK *       CLEAR     75  70  83 CALM      30.00S
CENTERVILLE *    N/A     66  66 100 CALM      30.03F
OTTUMWA        CLEAR     71  67  87 CALM      30.02R
WASHINGTON *   CLEAR     72  70  94 CALM      30.03R
$$

ABBREVIATIONS USED IN REMARKS
   TC - TEMPERATURES IN CELSIUS
  WCI - WIND CHILL INDEX
   HX - HEAT INDEX
  VSB - VISIBILITY
$$




USA.gov is the U.S. government's official web portal to all federal, state and local government web resources and services.